Location: Pedholt
(56.0260°N, 10.2097°E)
Time: 22:48:48
(UTC+00:00)

A-11 Canister half - Pass Details

Date: 29 July 2021
Orbit: 1515 x 1685 km, 47.2° (Epoch: 19 September)

Event Time Altitude Azimuth Distance (km) Brightness Sun altitude
Rises 17:59:06 0° 232° (SW) 4,825 12.1 10.8°
Reaches altitude 10° 18:02:22 10° 226° (SW) 3,863 11.6 10.3°
Maximum altitude 18:11:30 44° 159° (SSE) 2,179 9.7 9.1°
Drops below altitude 10° 18:20:51 10° 92° (E) 3,951 10.6 7.9°
Sets 18:24:12 0° 87° (E) 4,944 11.1 7.5°
